Flag for Japan Weather past 2 weeks in Sendai, Japan

Now
64 °F

Rain showers. Fog.


Feels Like: 64 °F
Forecast: 65 / 71 °F
Wind: 7 mph from West

Location: Sendai Airport

Current Time: Aug 28, 2014 at 12:27:52 AM

Latest Report: Aug 27, 2014 at 9:00 PM


Visibility: 2 mi

Pressure: 30.01 "Hg

Humidity: 100%

Dew point: 64 °F

Location of SendaiLocation

Historic Weather in Sendai — Graph

°F

Sendai temperature yesterday

Maximum temperature yesterday: 70 °F (at 12:00 PM)
Minimum temperature yesterday: 64 °F (at 6:00 AM)
Average temperature yesterday: 67 °F

Past Weeks' High & Low Weather Summary

 TemperatureHumidityPressure
High88 °F (Aug 20, 3:00 PM)100% (Aug 12, 9:00 PM)30.01 "Hg (Aug 12, 9:00 PM)
Low64 °F (Aug 27, 6:00 AM)66% (Aug 20, 3:00 PM)29.68 "Hg (Aug 15, 5:00 PM)
Average75 °F87%29.87 "Hg
* Reported Aug 12 9:00 PM — Aug 27 9:00 PM, Sendai, Weather by CustomWeather, © 2014

Note: Actual official high and low records may vary slightly from our data, if they occured in-between our weather recording intervals... More about our weather records

Advertising

Sendai weather history for previous 24 hours

 ConditionsComfort  
Time TempWeatherWind HumidityBarometerVisibility
9:00 PM
Aug 27
64 °FRain showers. Fog.7 mph100%30.01 "Hg2 mi
8:46 PM64 °FSprinkles. Passing clouds.8 mph100%30.01 "Hg5 mi
8:00 PM66 °FSprinkles. Fog.5 mph94%30.01 "Hg3 mi
7:00 PM66 °FSprinkles. Passing clouds.10 mph94%30.01 "HgN/A
6:00 PM66 °FSprinkles. Broken clouds.10 mph94%30.01 "HgN/A
5:00 PM66 °FSprinkles. Broken clouds.8 mph88%30.01 "HgN/A
4:00 PM66 °FSprinkles. Broken clouds.2 mph88%30.01 "HgN/A
3:00 PM66 °FSprinkles. Partly sunny.3 mph94%30.01 "HgN/A
2:00 PM68 °FBroken clouds.13 mph83%30.01 "HgN/A
1:00 PM70 °FPartly sunny.10 mph78%30.01 "HgN/A
12:00 PM70 °FBroken clouds.12 mph73%30.01 "HgN/A
11:00 AM68 °FSprinkles. Partly sunny.6 mph83%30.01 "HgN/A
10:00 AM68 °FSprinkles. Partly sunny.6 mph78%30.01 "HgN/A
9:00 AM68 °FSprinkles. Partly sunny.7 mph78%30.01 "HgN/A
8:00 AM66 °FBroken clouds.7 mph83%30.01 "HgN/A
7:00 AM66 °FBroken clouds.7 mph83%30.01 "HgN/A
6:00 AM64 °FBroken clouds.5 mph94%29.98 "HgN/A
Weather by CustomWeather, © 2014

See weather overviewHow to use our weather pages